Year,Month,Day,Hour,Minute,Value (Times are PST for temperature in C)
2019,04,01,00,00,6.80
2019,04,01,00,01,6.90
2019,04,01,00,02,7.00
2019,04,01,00,03,7.20
2019,04,01,00,04,7.30
2019,04,01,00,05,7.40
2019,04,01,00,06,7.60
2019,04,01,00,07,7.70
2019,04,01,00,08,7.80
2019,04,01,00,09,7.80
2019,04,01,00,10,7.90
2019,04,01,00,11,8.00
2019,04,01,00,12,8.10
2019,04,01,00,13,8.10
2019,04,01,00,14,8.10
2019,04,01,00,15,8.10
2019,04,01,00,16,8.10
2019,04,01,00,17,8.10
2019,04,01,00,18,8.10
2019,04,01,00,19,8.10
2019,04,01,00,20,8.10
2019,04,01,00,21,8.10
2019,04,01,00,22,8.10
2019,04,01,00,23,8.10
2019,04,01,00,24,8.10
2019,04,01,00,25,8.10
2019,04,01,00,26,8.10
2019,04,01,00,27,8.10
2019,04,01,00,28,8.10
2019,04,01,00,29,8.10
2019,04,01,00,30,8.10
2019,04,01,00,31,8.10
2019,04,01,00,32,8.10
2019,04,01,00,33,8.00
2019,04,01,00,34,8.00
2019,04,01,00,35,8.00
2019,04,01,00,36,8.00
2019,04,01,00,37,7.90
2019,04,01,00,38,7.90
2019,04,01,00,39,7.90
2019,04,01,00,40,7.80
2019,04,01,00,41,7.80
2019,04,01,00,42,7.80
2019,04,01,00,43,7.70
2019,04,01,00,44,7.70
2019,04,01,00,45,7.70
2019,04,01,00,46,7.60
2019,04,01,00,47,7.60
2019,04,01,00,48,7.60
2019,04,01,00,49,7.50
2019,04,01,00,50,7.40
2019,04,01,00,51,7.40
2019,04,01,00,52,7.30
2019,04,01,00,53,7.30
2019,04,01,00,54,7.20
2019,04,01,00,55,7.20
2019,04,01,00,56,7.10
2019,04,01,00,57,7.10
2019,04,01,00,58,7.00
2019,04,01,00,59,7.00
2019,04,01,01,00,7.00
2019,04,01,01,01,6.90
2019,04,01,01,02,6.90
2019,04,01,01,03,6.90
2019,04,01,01,04,6.80
2019,04,01,01,05,6.80
2019,04,01,01,06,6.80
2019,04,01,01,07,6.80
2019,04,01,01,08,6.80
2019,04,01,01,09,6.80
2019,04,01,01,10,6.80
2019,04,01,01,11,6.80
2019,04,01,01,12,6.80
2019,04,01,01,13,6.80
2019,04,01,01,14,6.80
2019,04,01,01,15,6.80
2019,04,01,01,16,6.80
2019,04,01,01,17,6.80
2019,04,01,01,18,6.80
2019,04,01,01,19,6.80
2019,04,01,01,20,6.80
2019,04,01,01,21,6.80
2019,04,01,01,22,6.80
2019,04,01,01,23,6.80
2019,04,01,01,24,6.80
2019,04,01,01,25,6.80
2019,04,01,01,26,6.80
2019,04,01,01,27,6.80
2019,04,01,01,28,6.80
2019,04,01,01,29,6.80
2019,04,01,01,30,6.80
2019,04,01,01,31,6.80
2019,04,01,01,32,6.80
2019,04,01,01,33,6.80
2019,04,01,01,34,6.80
2019,04,01,01,35,6.80
2019,04,01,01,36,6.80
2019,04,01,01,37,6.70
2019,04,01,01,38,6.70
2019,04,01,01,39,6.70
2019,04,01,01,40,6.70
2019,04,01,01,41,6.80
2019,04,01,01,42,6.80
2019,04,01,01,43,6.90
2019,04,01,01,44,6.90
2019,04,01,01,45,7.00
2019,04,01,01,46,7.00
2019,04,01,01,47,7.00
2019,04,01,01,48,7.10
2019,04,01,01,49,7.10
2019,04,01,01,50,7.10
2019,04,01,01,51,7.10
2019,04,01,01,52,7.10
2019,04,01,01,53,7.10
2019,04,01,01,54,7.10
2019,04,01,01,55,7.10
2019,04,01,01,56,7.10
2019,04,01,01,57,7.10
2019,04,01,01,58,7.10
2019,04,01,01,59,7.10
2019,04,01,02,00,7.00
2019,04,01,02,01,7.00
2019,04,01,02,02,7.00
2019,04,01,02,03,7.00
2019,04,01,02,04,6.90
2019,04,01,02,05,6.90
2019,04,01,02,06,6.90
2019,04,01,02,07,6.90
2019,04,01,02,08,6.90
2019,04,01,02,09,6.90
2019,04,01,02,10,6.80
2019,04,01,02,11,6.80
2019,04,01,02,12,6.80
2019,04,01,02,13,6.80
2019,04,01,02,14,6.80
2019,04,01,02,15,6.80
2019,04,01,02,16,6.80
2019,04,01,02,17,6.80
2019,04,01,02,18,6.80
2019,04,01,02,19,6.70
2019,04,01,02,20,6.70
2019,04,01,02,21,6.70
2019,04,01,02,22,6.70
2019,04,01,02,23,6.70
2019,04,01,02,24,6.70
2019,04,01,02,25,6.70
2019,04,01,02,26,6.70
2019,04,01,02,27,6.70
2019,04,01,02,28,6.70
2019,04,01,02,29,6.70
2019,04,01,02,30,6.70
2019,04,01,02,31,6.60
2019,04,01,02,32,6.60
2019,04,01,02,33,6.60
2019,04,01,02,34,6.60
2019,04,01,02,35,6.70
2019,04,01,02,36,6.70
2019,04,01,02,37,6.70
2019,04,01,02,38,6.70
2019,04,01,02,39,6.70
2019,04,01,02,40,6.70
2019,04,01,02,41,6.80
2019,04,01,02,42,6.80
2019,04,01,02,43,6.80
2019,04,01,02,44,6.80
2019,04,01,02,45,6.80
2019,04,01,02,46,6.70
2019,04,01,02,47,6.70
2019,04,01,02,48,6.70
2019,04,01,02,49,6.70
2019,04,01,02,50,6.80
2019,04,01,02,51,6.70
2019,04,01,02,52,6.70
2019,04,01,02,53,6.70
2019,04,01,02,54,6.70
2019,04,01,02,55,6.70
2019,04,01,02,56,6.70
2019,04,01,02,57,6.70
2019,04,01,02,58,6.70
2019,04,01,02,59,6.70
2019,04,01,03,00,6.70
2019,04,01,03,01,6.70
2019,04,01,03,02,6.70
2019,04,01,03,03,6.70
2019,04,01,03,04,6.70
2019,04,01,03,05,6.70
2019,04,01,03,06,6.70
2019,04,01,03,07,6.70
2019,04,01,03,08,6.70
2019,04,01,03,09,6.70
2019,04,01,03,10,6.70
2019,04,01,03,11,6.70
2019,04,01,03,12,6.70
2019,04,01,03,13,6.60
2019,04,01,03,14,6.60
2019,04,01,03,15,6.60
2019,04,01,03,16,6.60
2019,04,01,03,17,6.60
2019,04,01,03,18,6.60
2019,04,01,03,19,6.60
2019,04,01,03,20,6.50
2019,04,01,03,21,6.50
2019,04,01,03,22,6.40
2019,04,01,03,23,6.40
2019,04,01,03,24,6.30
2019,04,01,03,25,6.30
2019,04,01,03,26,6.30
2019,04,01,03,27,6.30
2019,04,01,03,28,6.30
2019,04,01,03,29,6.30
2019,04,01,03,30,6.20
2019,04,01,03,31,6.20
2019,04,01,03,32,6.20
2019,04,01,03,33,6.10
2019,04,01,03,34,6.10
2019,04,01,03,35,6.10
2019,04,01,03,36,6.10
2019,04,01,03,37,6.10
2019,04,01,03,38,6.10
2019,04,01,03,39,6.10
2019,04,01,03,40,6.10
2019,04,01,03,41,6.10
2019,04,01,03,42,6.10
2019,04,01,03,43,6.10
2019,04,01,03,44,6.10
2019,04,01,03,45,6.10
2019,04,01,03,46,6.10
2019,04,01,03,47,6.10
2019,04,01,03,48,6.10
2019,04,01,03,49,6.10
2019,04,01,03,50,6.20
2019,04,01,03,51,6.20
2019,04,01,03,52,6.20
2019,04,01,03,53,6.20
2019,04,01,03,54,6.20
2019,04,01,03,55,6.20
2019,04,01,03,56,6.20
2019,04,01,03,57,6.20
2019,04,01,03,58,6.20
2019,04,01,03,59,6.30
2019,04,01,04,00,6.30
2019,04,01,04,01,6.30
2019,04,01,04,02,6.30
2019,04,01,04,03,6.30
2019,04,01,04,04,6.30
2019,04,01,04,05,6.30
2019,04,01,04,06,6.30
2019,04,01,04,07,6.30
2019,04,01,04,08,6.30
2019,04,01,04,09,6.30
2019,04,01,04,10,6.30
2019,04,01,04,11,6.30
2019,04,01,04,12,6.30
2019,04,01,04,13,6.30
2019,04,01,04,14,6.20
2019,04,01,04,15,6.20
2019,04,01,04,16,6.20
2019,04,01,04,17,6.20
2019,04,01,04,18,6.20
2019,04,01,04,19,6.10
2019,04,01,04,20,6.10
2019,04,01,04,21,6.00
2019,04,01,04,22,5.90
2019,04,01,04,23,5.90
2019,04,01,04,24,5.80
2019,04,01,04,25,5.80
2019,04,01,04,26,5.80
2019,04,01,04,27,5.80
2019,04,01,04,28,5.80
2019,04,01,04,29,5.80
2019,04,01,04,30,5.80
2019,04,01,04,31,5.90
2019,04,01,04,32,5.90
2019,04,01,04,33,5.90
2019,04,01,04,34,5.90
2019,04,01,04,35,5.90
2019,04,01,04,36,5.90
2019,04,01,04,37,5.90
2019,04,01,04,38,5.90
2019,04,01,04,39,5.90
2019,04,01,04,40,5.90
2019,04,01,04,41,5.90
2019,04,01,04,42,5.90
2019,04,01,04,43,5.90
2019,04,01,04,44,5.90
2019,04,01,04,45,5.90
2019,04,01,04,46,6.00
2019,04,01,04,47,6.00
2019,04,01,04,48,6.10
2019,04,01,04,49,6.10
2019,04,01,04,50,6.10
2019,04,01,04,51,6.20
2019,04,01,04,52,6.20
2019,04,01,04,53,6.20
2019,04,01,04,54,6.20
2019,04,01,04,55,6.20
2019,04,01,04,56,6.20
2019,04,01,04,57,6.30
2019,04,01,04,58,6.30
2019,04,01,04,59,6.30
2019,04,01,05,00,6.30
2019,04,01,05,01,6.30
2019,04,01,05,02,6.30
2019,04,01,05,03,6.30
2019,04,01,05,04,6.30
2019,04,01,05,05,6.30
2019,04,01,05,06,6.30
2019,04,01,05,07,6.30
2019,04,01,05,08,6.30
2019,04,01,05,09,6.30
2019,04,01,05,10,6.30
2019,04,01,05,11,6.20
2019,04,01,05,12,6.20
2019,04,01,05,13,6.20
2019,04,01,05,14,6.20
2019,04,01,05,15,6.20
2019,04,01,05,16,6.20
2019,04,01,05,17,6.20
2019,04,01,05,18,6.10
2019,04,01,05,19,6.10
2019,04,01,05,20,6.10
2019,04,01,05,21,6.10
2019,04,01,05,22,6.10
2019,04,01,05,23,6.10
2019,04,01,05,24,6.10
2019,04,01,05,25,6.10
2019,04,01,05,26,6.10
2019,04,01,05,27,6.10
2019,04,01,05,28,6.10
2019,04,01,05,29,6.10
2019,04,01,05,30,6.10
2019,04,01,05,31,6.10
2019,04,01,05,32,6.10
2019,04,01,05,33,6.10
2019,04,01,05,34,6.10
2019,04,01,05,35,6.10
2019,04,01,05,36,6.10
2019,04,01,05,37,6.10
2019,04,01,05,38,6.10
2019,04,01,05,39,6.20
2019,04,01,05,40,6.20
2019,04,01,05,41,6.30
2019,04,01,05,42,6.40
2019,04,01,05,43,6.40
2019,04,01,05,44,6.50
2019,04,01,05,45,6.50
2019,04,01,05,46,6.50
2019,04,01,05,47,6.50
2019,04,01,05,48,6.50
2019,04,01,05,49,6.50
2019,04,01,05,50,6.50
2019,04,01,05,51,6.40
2019,04,01,05,52,6.40
2019,04,01,05,53,6.40
2019,04,01,05,54,6.40
2019,04,01,05,55,6.40
2019,04,01,05,56,6.30
2019,04,01,05,57,6.30
2019,04,01,05,58,6.30
2019,04,01,05,59,6.30
2019,04,01,06,00,6.30
2019,04,01,06,01,6.30
2019,04,01,06,02,6.30
2019,04,01,06,03,6.30
2019,04,01,06,04,6.30
2019,04,01,06,05,6.30
2019,04,01,06,06,6.30
2019,04,01,06,07,6.30
2019,04,01,06,08,6.20
2019,04,01,06,09,6.20
2019,04,01,06,10,6.20
2019,04,01,06,11,6.20
2019,04,01,06,12,6.20
2019,04,01,06,13,6.20
2019,04,01,06,14,6.20
2019,04,01,06,15,6.20
2019,04,01,06,16,6.20
2019,04,01,06,17,6.20
2019,04,01,06,18,6.20
2019,04,01,06,19,6.20
2019,04,01,06,20,6.20
2019,04,01,06,21,6.20
2019,04,01,06,22,6.20
2019,04,01,06,23,6.20
2019,04,01,06,24,6.30
2019,04,01,06,25,6.30
2019,04,01,06,26,6.30
2019,04,01,06,27,6.30
2019,04,01,06,28,6.30
2019,04,01,06,29,6.30
2019,04,01,06,30,6.30
2019,04,01,06,31,6.30
2019,04,01,06,32,6.30
2019,04,01,06,33,6.30
2019,04,01,06,34,6.30
2019,04,01,06,35,6.30
2019,04,01,06,36,6.30
2019,04,01,06,37,6.30
2019,04,01,06,38,6.30
2019,04,01,06,39,6.30
2019,04,01,06,40,6.30
2019,04,01,06,41,6.30
2019,04,01,06,42,6.30
2019,04,01,06,43,6.30
2019,04,01,06,44,6.30
2019,04,01,06,45,6.30
2019,04,01,06,46,6.30
2019,04,01,06,47,6.30
2019,04,01,06,48,6.30
2019,04,01,06,49,6.30
2019,04,01,06,50,6.30
2019,04,01,06,51,6.30
2019,04,01,06,52,6.30
2019,04,01,06,53,6.30
2019,04,01,06,54,6.30
2019,04,01,06,55,6.20
2019,04,01,06,56,6.20
2019,04,01,06,57,6.10
2019,04,01,06,58,6.10
2019,04,01,06,59,6.10
2019,04,01,07,00,6.10
2019,04,01,07,01,6.10
2019,04,01,07,02,6.10
2019,04,01,07,03,6.10
2019,04,01,07,04,6.10
2019,04,01,07,05,6.20
2019,04,01,07,06,6.20
2019,04,01,07,07,6.20
2019,04,01,07,08,6.20
2019,04,01,07,09,6.20
2019,04,01,07,10,6.30
2019,04,01,07,11,6.30
2019,04,01,07,12,6.30
2019,04,01,07,13,6.30
2019,04,01,07,14,6.30
2019,04,01,07,15,6.30
2019,04,01,07,16,6.30
2019,04,01,07,17,6.20
2019,04,01,07,18,6.20
2019,04,01,07,19,6.20
2019,04,01,07,20,6.20
2019,04,01,07,21,6.10
2019,04,01,07,22,6.10
2019,04,01,07,23,6.10
2019,04,01,07,24,6.20
2019,04,01,07,25,6.20
2019,04,01,07,26,6.20
2019,04,01,07,27,6.20
2019,04,01,07,28,6.20
2019,04,01,07,29,6.20
2019,04,01,07,30,6.20
2019,04,01,07,31,6.20
2019,04,01,07,32,6.20
2019,04,01,07,33,6.20
2019,04,01,07,34,6.20
2019,04,01,07,35,6.30
2019,04,01,07,36,6.30
2019,04,01,07,37,6.30
2019,04,01,07,38,6.40
2019,04,01,07,39,6.40
2019,04,01,07,40,6.50
2019,04,01,07,41,6.50
2019,04,01,07,42,6.60
2019,04,01,07,43,6.60
2019,04,01,07,44,6.60
2019,04,01,07,45,6.70
2019,04,01,07,46,6.70
2019,04,01,07,47,6.80
2019,04,01,07,48,6.80
2019,04,01,07,49,6.80
2019,04,01,07,50,6.90
2019,04,01,07,51,6.90
2019,04,01,07,52,7.00
2019,04,01,07,53,7.10
2019,04,01,07,54,7.10
2019,04,01,07,55,7.20
2019,04,01,07,56,7.20
2019,04,01,07,57,7.20
2019,04,01,07,58,7.30
2019,04,01,07,59,7.30
2019,04,01,08,00,7.30
2019,04,01,08,01,7.40
2019,04,01,08,02,7.40
2019,04,01,08,03,7.40
2019,04,01,08,04,7.40
2019,04,01,08,05,7.50
2019,04,01,08,06,7.50
2019,04,01,08,07,7.60
2019,04,01,08,08,7.60
2019,04,01,08,09,7.60
2019,04,01,08,10,7.70
2019,04,01,08,11,7.70
2019,04,01,08,12,7.70
2019,04,01,08,13,7.70
2019,04,01,08,14,7.80
2019,04,01,08,15,7.80
2019,04,01,08,16,7.80
2019,04,01,08,17,7.80
2019,04,01,08,18,7.80
2019,04,01,08,19,7.80
2019,04,01,08,20,7.80
2019,04,01,08,21,7.80
2019,04,01,08,22,7.80
2019,04,01,08,23,7.80
2019,04,01,08,24,7.90
2019,04,01,08,25,7.90
2019,04,01,08,26,7.90
2019,04,01,08,27,7.90
2019,04,01,08,28,7.90
2019,04,01,08,29,8.00
2019,04,01,08,30,8.00
2019,04,01,08,31,8.10
2019,04,01,08,32,8.10
2019,04,01,08,33,8.10
2019,04,01,08,34,8.10
2019,04,01,08,35,8.10
2019,04,01,08,36,8.10
2019,04,01,08,37,8.10
2019,04,01,08,38,8.20
2019,04,01,08,39,8.20
2019,04,01,08,40,8.20
2019,04,01,08,41,8.30
2019,04,01,08,42,8.30
2019,04,01,08,43,8.40
2019,04,01,08,44,8.50
2019,04,01,08,45,8.50
2019,04,01,08,46,8.60
2019,04,01,08,47,8.60
2019,04,01,08,48,8.70
2019,04,01,08,49,8.70
2019,04,01,08,50,8.70
2019,04,01,08,51,8.80
2019,04,01,08,52,8.80
2019,04,01,08,53,8.90
2019,04,01,08,54,8.90
2019,04,01,08,55,8.90
2019,04,01,08,56,8.90
2019,04,01,08,57,9.00
2019,04,01,08,58,9.00
2019,04,01,08,59,9.10
2019,04,01,09,00,9.10
2019,04,01,09,01,9.20
2019,04,01,09,02,9.30
2019,04,01,09,03,9.50
2019,04,01,09,04,9.60
2019,04,01,09,05,9.70
2019,04,01,09,06,9.90
2019,04,01,09,07,10.10
2019,04,01,09,08,10.30
2019,04,01,09,09,10.40
2019,04,01,09,10,10.60
2019,04,01,09,11,10.70
2019,04,01,09,12,10.80
2019,04,01,09,13,10.90
2019,04,01,09,14,10.90
2019,04,01,09,15,11.00
2019,04,01,09,16,11.10
2019,04,01,09,17,11.10
2019,04,01,09,18,11.20
2019,04,01,09,19,11.20
2019,04,01,09,20,11.30
2019,04,01,09,21,11.30
2019,04,01,09,22,11.30
2019,04,01,09,23,11.30
2019,04,01,09,24,11.30
2019,04,01,09,25,11.30
2019,04,01,09,26,11.30
2019,04,01,09,27,11.30
2019,04,01,09,28,11.30
2019,04,01,09,29,11.30
2019,04,01,09,30,11.40
2019,04,01,09,31,11.40
2019,04,01,09,32,11.40
2019,04,01,09,33,11.50
2019,04,01,09,34,11.50
2019,04,01,09,35,11.60
2019,04,01,09,36,11.60
2019,04,01,09,37,11.70
2019,04,01,09,38,11.70
2019,04,01,09,39,11.80
2019,04,01,09,40,11.80
2019,04,01,09,41,11.80
2019,04,01,09,42,11.80
2019,04,01,09,43,11.80
2019,04,01,09,44,11.80
2019,04,01,09,45,11.80
2019,04,01,09,46,11.80
2019,04,01,09,47,11.80
2019,04,01,09,48,11.80
2019,04,01,09,49,11.80
2019,04,01,09,50,11.80
2019,04,01,09,51,11.80
2019,04,01,09,52,11.80
2019,04,01,09,53,11.90
2019,04,01,09,54,11.90
2019,04,01,09,55,11.90
2019,04,01,09,56,12.00
2019,04,01,09,57,12.10
2019,04,01,09,58,12.10
2019,04,01,09,59,12.20
2019,04,01,10,00,12.20
2019,04,01,10,01,12.20
2019,04,01,10,02,12.30
2019,04,01,10,03,12.30
2019,04,01,10,04,12.30
2019,04,01,10,05,12.30
2019,04,01,10,06,12.40
2019,04,01,10,07,12.40
2019,04,01,10,08,12.40
2019,04,01,10,09,12.40
2019,04,01,10,10,12.40
2019,04,01,10,11,12.40
2019,04,01,10,12,12.50
2019,04,01,10,13,12.50
2019,04,01,10,14,12.60
2019,04,01,10,15,12.60
2019,04,01,10,16,12.60
2019,04,01,10,17,12.60
2019,04,01,10,18,12.50
2019,04,01,10,19,12.50
2019,04,01,10,20,12.60
2019,04,01,10,21,12.60
2019,04,01,10,22,12.60
2019,04,01,10,23,12.70
2019,04,01,10,24,12.70
2019,04,01,10,25,12.80
2019,04,01,10,26,12.80
2019,04,01,10,27,12.80
2019,04,01,10,28,12.80
2019,04,01,10,29,12.80
2019,04,01,10,30,12.90
2019,04,01,10,31,12.90
2019,04,01,10,32,12.90
2019,04,01,10,33,12.90
2019,04,01,10,34,13.00
2019,04,01,10,35,13.10
2019,04,01,10,36,13.10
2019,04,01,10,37,13.10
2019,04,01,10,38,13.20
2019,04,01,10,39,13.30
2019,04,01,10,40,13.30
2019,04,01,10,41,13.30
2019,04,01,10,42,13.40
2019,04,01,10,43,13.40
2019,04,01,10,44,13.40
2019,04,01,10,45,13.40
2019,04,01,10,46,13.40
2019,04,01,10,47,13.50
2019,04,01,10,48,13.60
2019,04,01,10,49,13.60
2019,04,01,10,50,13.60
2019,04,01,10,51,13.70
2019,04,01,10,52,13.70
2019,04,01,10,53,13.70
2019,04,01,10,54,13.70
2019,04,01,10,55,13.70
2019,04,01,10,56,13.70
2019,04,01,10,57,13.70
2019,04,01,10,58,13.70
2019,04,01,10,59,13.70
2019,04,01,11,00,13.70
2019,04,01,11,01,13.70
2019,04,01,11,02,13.70
2019,04,01,11,03,13.80
2019,04,01,11,04,13.80
2019,04,01,11,05,13.80
2019,04,01,11,06,13.80
2019,04,01,11,07,13.90
2019,04,01,11,08,13.90
2019,04,01,11,09,14.00
2019,04,01,11,10,14.00
2019,04,01,11,11,14.00
2019,04,01,11,12,14.10
2019,04,01,11,13,14.20
2019,04,01,11,14,14.20
2019,04,01,11,15,14.20
2019,04,01,11,16,14.20
2019,04,01,11,17,14.20
2019,04,01,11,18,14.20
2019,04,01,11,19,14.10
2019,04,01,11,20,14.20
2019,04,01,11,21,14.30
2019,04,01,11,22,14.50
2019,04,01,11,23,14.60
2019,04,01,11,24,14.70
2019,04,01,11,25,14.80
2019,04,01,11,26,14.90
2019,04,01,11,27,14.90
2019,04,01,11,28,14.90
2019,04,01,11,29,14.90
2019,04,01,11,30,14.90
2019,04,01,11,31,14.80
2019,04,01,11,32,14.80
2019,04,01,11,33,14.70
2019,04,01,11,34,14.70
2019,04,01,11,35,14.70
2019,04,01,11,36,14.80
2019,04,01,11,37,14.80
2019,04,01,11,38,14.80
2019,04,01,11,39,14.80
2019,04,01,11,40,14.80
2019,04,01,11,41,14.80
2019,04,01,11,42,14.90
2019,04,01,11,43,15.00
2019,04,01,11,44,15.20
2019,04,01,11,45,15.40
2019,04,01,11,46,15.40
2019,04,01,11,47,15.40
2019,04,01,11,48,15.40
2019,04,01,11,49,15.40
2019,04,01,11,50,15.60
2019,04,01,11,51,15.70
2019,04,01,11,52,15.80
2019,04,01,11,53,15.90
2019,04,01,11,54,15.90
2019,04,01,11,55,16.00
2019,04,01,11,56,15.90
2019,04,01,11,57,15.80
2019,04,01,11,58,15.70
2019,04,01,11,59,15.60
2019,04,01,12,00,15.60
2019,04,01,12,01,15.60
2019,04,01,12,02,15.80
2019,04,01,12,03,15.90
2019,04,01,12,04,16.00
2019,04,01,12,05,16.10
2019,04,01,12,06,16.10
2019,04,01,12,07,15.90
2019,04,01,12,08,15.80
2019,04,01,12,09,15.80
2019,04,01,12,10,15.70
2019,04,01,12,11,15.60
2019,04,01,12,12,15.60
2019,04,01,12,13,15.40
2019,04,01,12,14,15.40
2019,04,01,12,15,15.40
2019,04,01,12,16,15.40
2019,04,01,12,17,15.50
2019,04,01,12,18,15.60
2019,04,01,12,19,15.70
2019,04,01,12,20,15.80
2019,04,01,12,21,16.00
2019,04,01,12,22,16.00
2019,04,01,12,23,15.90
2019,04,01,12,24,15.80
2019,04,01,12,25,15.80
2019,04,01,12,26,15.90
2019,04,01,12,27,15.90
2019,04,01,12,28,16.00
2019,04,01,12,29,16.00
2019,04,01,12,30,16.00
2019,04,01,12,31,16.10
2019,04,01,12,32,16.10
2019,04,01,12,33,16.00
2019,04,01,12,34,15.90
2019,04,01,12,35,15.80
2019,04,01,12,36,15.70
2019,04,01,12,37,15.70
2019,04,01,12,38,15.70
2019,04,01,12,39,15.70
2019,04,01,12,40,15.70
2019,04,01,12,41,15.80
2019,04,01,12,42,15.80
2019,04,01,12,43,15.80
2019,04,01,12,44,15.90
2019,04,01,12,45,15.90
2019,04,01,12,46,16.10
2019,04,01,12,47,16.10
2019,04,01,12,48,16.10
2019,04,01,12,49,16.00
2019,04,01,12,50,15.90
2019,04,01,12,51,15.90
2019,04,01,12,52,15.90
2019,04,01,12,53,16.00
2019,04,01,12,54,16.00
2019,04,01,12,55,16.00
2019,04,01,12,56,15.90
2019,04,01,12,57,15.80
2019,04,01,12,58,15.80
2019,04,01,12,59,15.80
2019,04,01,13,00,15.80
2019,04,01,13,01,15.80
2019,04,01,13,02,15.90
2019,04,01,13,03,16.00
2019,04,01,13,04,16.00
2019,04,01,13,05,16.00
2019,04,01,13,06,16.10
2019,04,01,13,07,16.30
2019,04,01,13,08,16.40
2019,04,01,13,09,16.50
2019,04,01,13,10,16.50
2019,04,01,13,11,16.50
2019,04,01,13,12,16.50
2019,04,01,13,13,16.60
2019,04,01,13,14,16.60
2019,04,01,13,15,16.70
2019,04,01,13,16,16.80
2019,04,01,13,17,16.80
2019,04,01,13,18,16.70
2019,04,01,13,19,16.70
2019,04,01,13,20,16.80
2019,04,01,13,21,16.80
2019,04,01,13,22,16.90
2019,04,01,13,23,16.90
2019,04,01,13,24,16.90
2019,04,01,13,25,17.00
2019,04,01,13,26,17.00
2019,04,01,13,27,17.20
2019,04,01,13,28,17.20
2019,04,01,13,29,17.20
2019,04,01,13,30,17.20
2019,04,01,13,31,17.20
2019,04,01,13,32,17.20
2019,04,01,13,33,17.20
2019,04,01,13,34,17.20
2019,04,01,13,35,17.30
2019,04,01,13,36,17.40
2019,04,01,13,37,17.40
2019,04,01,13,38,17.30
2019,04,01,13,39,17.40
2019,04,01,13,40,17.20
2019,04,01,13,41,17.10
2019,04,01,13,42,16.90
2019,04,01,13,43,16.70
2019,04,01,13,44,16.50
2019,04,01,13,45,16.30
2019,04,01,13,46,16.30
2019,04,01,13,47,16.40
2019,04,01,13,48,16.60
2019,04,01,13,49,16.80
2019,04,01,13,50,16.80
2019,04,01,13,51,16.90
2019,04,01,13,52,16.90
2019,04,01,13,53,16.80
2019,04,01,13,54,16.80
2019,04,01,13,55,16.90
2019,04,01,13,56,17.00
2019,04,01,13,57,17.10
2019,04,01,13,58,17.00
2019,04,01,13,59,16.90
2019,04,01,14,00,17.00
2019,04,01,14,01,16.90
2019,04,01,14,02,16.80
2019,04,01,14,03,16.60
2019,04,01,14,04,16.60
2019,04,01,14,05,16.50
2019,04,01,14,06,16.40
2019,04,01,14,07,16.50
2019,04,01,14,08,16.60
2019,04,01,14,09,16.90
2019,04,01,14,10,17.10
2019,04,01,14,11,17.20
2019,04,01,14,12,17.20
2019,04,01,14,13,17.20
2019,04,01,14,14,17.20
2019,04,01,14,15,17.30
2019,04,01,14,16,17.30
2019,04,01,14,17,17.40
2019,04,01,14,18,17.50
2019,04,01,14,19,17.50
2019,04,01,14,20,17.50
2019,04,01,14,21,17.40
2019,04,01,14,22,17.30
2019,04,01,14,23,17.40
2019,04,01,14,24,17.40
2019,04,01,14,25,17.50
2019,04,01,14,26,17.50
2019,04,01,14,27,17.40
2019,04,01,14,28,17.50
2019,04,01,14,29,17.60
2019,04,01,14,30,17.50
2019,04,01,14,31,17.50
2019,04,01,14,32,17.50
2019,04,01,14,33,17.40
2019,04,01,14,34,17.40
2019,04,01,14,35,17.50
2019,04,01,14,36,17.60
2019,04,01,14,37,17.70
2019,04,01,14,38,17.70
2019,04,01,14,39,17.70
2019,04,01,14,40,17.50
2019,04,01,14,41,17.40
2019,04,01,14,42,17.30
2019,04,01,14,43,17.30
2019,04,01,14,44,17.30
2019,04,01,14,45,17.30
2019,04,01,14,46,17.30
2019,04,01,14,47,17.30
2019,04,01,14,48,17.30
2019,04,01,14,49,17.40
2019,04,01,14,50,17.40
2019,04,01,14,51,17.30
2019,04,01,14,52,17.40
2019,04,01,14,53,17.40
2019,04,01,14,54,17.50
2019,04,01,14,55,17.50
2019,04,01,14,56,17.60
2019,04,01,14,57,17.60
2019,04,01,14,58,17.70
2019,04,01,14,59,17.70
2019,04,01,15,00,17.70
2019,04,01,15,01,17.70
2019,04,01,15,02,17.70
2019,04,01,15,03,17.80
2019,04,01,15,04,17.90
2019,04,01,15,05,18.00
2019,04,01,15,06,18.10
2019,04,01,15,07,18.00
2019,04,01,15,08,17.90
2019,04,01,15,09,17.80
2019,04,01,15,10,17.80
2019,04,01,15,11,17.70
2019,04,01,15,12,17.70
2019,04,01,15,13,17.80
2019,04,01,15,14,17.80
2019,04,01,15,15,17.90
2019,04,01,15,16,17.90
2019,04,01,15,17,17.90
2019,04,01,15,18,18.00
2019,04,01,15,19,18.00
2019,04,01,15,20,17.90
2019,04,01,15,21,17.90
2019,04,01,15,22,17.90
2019,04,01,15,23,17.90
2019,04,01,15,24,18.00
2019,04,01,15,25,18.00
2019,04,01,15,26,18.00
2019,04,01,15,27,17.90
2019,04,01,15,28,17.80
2019,04,01,15,29,17.70
2019,04,01,15,30,17.70
2019,04,01,15,31,17.70
2019,04,01,15,32,17.70
2019,04,01,15,33,17.70
2019,04,01,15,34,17.70
2019,04,01,15,35,17.60
2019,04,01,15,36,17.60
2019,04,01,15,37,17.60
2019,04,01,15,38,17.50
2019,04,01,15,39,17.40
2019,04,01,15,40,17.40
2019,04,01,15,41,17.40
2019,04,01,15,42,17.40
2019,04,01,15,43,17.40
2019,04,01,15,44,17.40
2019,04,01,15,45,17.40
2019,04,01,15,46,17.40
2019,04,01,15,47,17.40
2019,04,01,15,48,17.50
2019,04,01,15,49,17.50
2019,04,01,15,50,17.40
2019,04,01,15,51,17.30
2019,04,01,15,52,17.30
2019,04,01,15,53,17.20
2019,04,01,15,54,17.20
2019,04,01,15,55,17.30
2019,04,01,15,56,17.40
2019,04,01,15,57,17.50
2019,04,01,15,58,17.70
2019,04,01,15,59,17.90
2019,04,01,16,00,18.10
2019,04,01,16,01,18.30
2019,04,01,16,02,18.40
2019,04,01,16,03,18.30
2019,04,01,16,04,18.30
2019,04,01,16,05,18.20
2019,04,01,16,06,18.20
2019,04,01,16,07,18.10
2019,04,01,16,08,18.10
2019,04,01,16,09,18.10
2019,04,01,16,10,18.20
2019,04,01,16,11,18.30
2019,04,01,16,12,18.30
2019,04,01,16,13,18.30
2019,04,01,16,14,18.30
2019,04,01,16,15,18.40
2019,04,01,16,16,18.40
2019,04,01,16,17,18.40
2019,04,01,16,18,18.40
2019,04,01,16,19,18.40
2019,04,01,16,20,18.40
2019,04,01,16,21,18.50
2019,04,01,16,22,18.50
2019,04,01,16,23,18.50
2019,04,01,16,24,18.40
2019,04,01,16,25,18.30
2019,04,01,16,26,18.30
2019,04,01,16,27,18.30
2019,04,01,16,28,18.20
2019,04,01,16,29,18.30
2019,04,01,16,30,18.40
2019,04,01,16,31,18.50
2019,04,01,16,32,18.60
2019,04,01,16,33,18.70
2019,04,01,16,34,18.80
2019,04,01,16,35,18.90
2019,04,01,16,36,19.00
2019,04,01,16,37,19.00
2019,04,01,16,38,19.10
2019,04,01,16,39,19.10
2019,04,01,16,40,19.10
2019,04,01,16,41,19.10
2019,04,01,16,42,19.10
2019,04,01,16,43,19.20
2019,04,01,16,44,19.20
2019,04,01,16,45,19.20
2019,04,01,16,46,19.20
2019,04,01,16,47,19.20
2019,04,01,16,48,19.20
2019,04,01,16,49,19.20
2019,04,01,16,50,19.10
2019,04,01,16,51,19.10
2019,04,01,16,52,19.10
2019,04,01,16,53,19.10
2019,04,01,16,54,19.10
2019,04,01,16,55,19.20
2019,04,01,16,56,19.20
2019,04,01,16,57,19.20
2019,04,01,16,58,19.20
2019,04,01,16,59,19.20
2019,04,01,17,00,19.20
2019,04,01,17,01,19.10
2019,04,01,17,02,18.90
2019,04,01,17,03,18.90
2019,04,01,17,04,18.80
2019,04,01,17,05,18.80
2019,04,01,17,06,18.80
2019,04,01,17,07,18.80
2019,04,01,17,08,18.80
2019,04,01,17,09,18.80
2019,04,01,17,10,18.80
2019,04,01,17,11,18.80
2019,04,01,17,12,18.80
2019,04,01,17,13,18.80
2019,04,01,17,14,18.80
2019,04,01,17,15,18.80
2019,04,01,17,16,18.80
2019,04,01,17,17,18.90
2019,04,01,17,18,19.00
2019,04,01,17,19,19.00
2019,04,01,17,20,19.10
2019,04,01,17,21,19.30
2019,04,01,17,22,19.30
2019,04,01,17,23,19.40
2019,04,01,17,24,19.40
2019,04,01,17,25,19.40
2019,04,01,17,26,19.40
2019,04,01,17,27,19.30
2019,04,01,17,28,19.20
2019,04,01,17,29,19.20
2019,04,01,17,30,19.20
2019,04,01,17,31,19.10
2019,04,01,17,32,19.10
2019,04,01,17,33,19.10
2019,04,01,17,34,19.10
2019,04,01,17,35,19.10
2019,04,01,17,36,19.00
2019,04,01,17,37,18.90
2019,04,01,17,38,18.90
2019,04,01,17,39,18.90
2019,04,01,17,40,18.90
2019,04,01,17,41,18.80
2019,04,01,17,42,18.70
2019,04,01,17,43,18.70